When you browse on this site, cookies collect data to enhance your experience and personalize the content and advertising you see.
Visit our Privacy Policy to learn more. By continuing to use the site, you agree to this use of cookies and data.
  • In Hungary
  • List of Countries
  • For 7 days
  • Water Temperature
  • Satellite Maps
  • Weather Map
  • News
  • Weather Widgets
  • user-avatar
    Login

    Hourly Weather Huaibei

    Today, 11 December, Tuesday

    Time Temperature Precipitation Wind Pressure Humidity
    00:00 -1°C° 0.3 mm 4 mps 770 mmHg 86%
    01:00 -1°C° 0.3 mm 4 mps 770 mmHg 88%
    02:00 -2°C° 0 mm 4 mps 771 mmHg 86%
    03:00 -2°C° 0.1 mm 4 mps 771 mmHg 85%
    04:00 -2°C° 0.1 mm 4 mps 771 mmHg 85%
    05:00 -1°C° 0.1 mm 3 mps 771 mmHg 84%
    06:00 -1°C° 0 mm 3 mps 771 mmHg 82%
    07:00 -1°C° 0 mm 3 mps 771 mmHg 80%
    08:00 -1°C° 0 mm 2 mps 772 mmHg 84%
    09:00 -1°C° 0 mm 3 mps 772 mmHg 78%
    10:00 -1°C° 0 mm 4 mps 772 mmHg 72%
    11:00 0°C° 0 mm 5 mps 773 mmHg 66%
    12:00 0°C° 0 mm 5 mps 772 mmHg 59%
    13:00 +1°C° 0 mm 5 mps 772 mmHg 51%
    14:00 +1°C° 0 mm 5 mps 772 mmHg 44%
    15:00 0°C° 0 mm 4 mps 772 mmHg 46%
    16:00 0°C° 0 mm 3 mps 772 mmHg 48%
    17:00 0°C° 0 mm 3 mps 772 mmHg 51%
    18:00 -1°C° 0 mm 3 mps 773 mmHg 52%
    19:00 -2°C° 0 mm 3 mps 773 mmHg 54%
    20:00 -2°C° 0 mm 2 mps 774 mmHg 59%
    21:00 -3°C° 0 mm 2 mps 774 mmHg 58%
    22:00 -3°C° 0 mm 2 mps 774 mmHg 57%
    23:00 -3°C° 0 mm 2 mps 774 mmHg 56%

    Tomorrow, 12 December, Wednesday

    Time Temperature Precipitation Wind Pressure Humidity
    00:00 -3°C° 0 mm 2 mps 774 mmHg 56%
    01:00 -3°C° 0 mm 2 mps 774 mmHg 55%
    02:00 -3°C° 0 mm 2 mps 774 mmHg 55%
    03:00 -3°C° 0 mm 2 mps 774 mmHg 53%
    04:00 -3°C° 0 mm 2 mps 774 mmHg 51%
    05:00 -4°C° 0 mm 2 mps 774 mmHg 49%
    06:00 -2°C° 0 mm 1 mps 774 mmHg 47%
    07:00 -1°C° 0 mm 1 mps 774 mmHg 44%
    08:00 -1°C° 0 mm 1 mps 774 mmHg 41%
    09:00 0°C° 0 mm 1 mps 774 mmHg 35%
    10:00 0°C° 0 mm 0 mps 774 mmHg 29%
    11:00 +2°C° 0 mm 0 mps 774 mmHg 23%
    12:00 +2°C° 0 mm 0 mps 774 mmHg 22%
    13:00 +4°C° 0 mm 1 mps 773 mmHg 22%
    14:00 +4°C° 0 mm 1 mps 772 mmHg 22%
    15:00 +3°C° 0 mm 1 mps 772 mmHg 27%
    16:00 +2°C° 0 mm 1 mps 772 mmHg 31%
    17:00 +1°C° 0 mm 1 mps 771 mmHg 36%
    18:00 +1°C° 0 mm 1 mps 771 mmHg 38%
    19:00 +1°C° 0 mm 1 mps 771 mmHg 40%
    20:00 0°C° 0 mm 1 mps 771 mmHg 42%
    21:00 0°C° 0 mm 1 mps 771 mmHg 43%
    22:00 0°C° 0 mm 1 mps 772 mmHg 44%
    23:00 0°C° 0 mm 1 mps 772 mmHg 45%

    Day after tomorrow, 13 December, Thursday

    Time Temperature Precipitation Wind Pressure Humidity
    00:00 0°C° 0 mm 1 mps 772 mmHg 45%
    01:00 0°C° 0 mm 1 mps 772 mmHg 45%
    02:00 0°C° 0 mm 1 mps 771 mmHg 45%
    03:00 0°C° 0 mm 1 mps 771 mmHg 45%
    04:00 0°C° 0 mm 1 mps 771 mmHg 45%
    05:00 0°C° 0 mm 1 mps 771 mmHg 45%
    06:00 -1°C° 0 mm 0 mps 772 mmHg 45%
    07:00 -1°C° 0 mm 0 mps 772 mmHg 44%
    08:00 -1°C° 0 mm 0 mps 772 mmHg 44%
    09:00 +1°C° 0 mm 0 mps 773 mmHg 39%
    10:00 +2°C° 0 mm 0 mps 773 mmHg 35%
    11:00 +5°C° 0 mm 1 mps 773 mmHg 30%
    12:00 +5°C° 0 mm 1 mps 773 mmHg 29%
    13:00 +6°C° 0 mm 1 mps 772 mmHg 28%
    14:00 +6°C° 0 mm 2 mps 772 mmHg 28%
    15:00 +5°C° 0 mm 2 mps 772 mmHg 32%
    16:00 +4°C° 0 mm 2 mps 772 mmHg 37%
    17:00 +2°C° 0 mm 2 mps 772 mmHg 42%
    18:00 +2°C° 0 mm 2 mps 772 mmHg 43%
    19:00 +1°C° 0 mm 2 mps 773 mmHg 45%
    20:00 +1°C° 0 mm 2 mps 773 mmHg 47%
    21:00 -1°C° 0 mm 2 mps 773 mmHg 48%
    22:00 -1°C° 0 mm 2 mps 774 mmHg 49%
    23:00 -1°C° 0 mm 2 mps 774 mmHg 50%

    14 December, Friday

    Time Temperature Precipitation Wind Pressure Humidity
    00:00 -1°C° 0 mm 2 mps 774 mmHg 51%
    01:00 -2°C° 0 mm 2 mps 774 mmHg 51%
    02:00 -2°C° 0 mm 2 mps 774 mmHg 52%
    03:00 -2°C° 0 mm 2 mps 773 mmHg 52%
    04:00 -2°C° 0 mm 2 mps 773 mmHg 53%
    05:00 -2°C° 0 mm 2 mps 773 mmHg 53%
    06:00 -2°C° 0 mm 3 mps 773 mmHg 54%
    07:00 -2°C° 0 mm 3 mps 774 mmHg 54%
    08:00 -2°C° 0 mm 3 mps 774 mmHg 54%
    09:00 0°C° 0 mm 3 mps 774 mmHg 54%
    10:00 +2°C° 0 mm 3 mps 774 mmHg 53%
    11:00 +4°C° 0 mm 3 mps 774 mmHg 53%
    12:00 +4°C° 0 mm 3 mps 773 mmHg 52%
    13:00 +5°C° 0 mm 3 mps 773 mmHg 52%
    14:00 +7°C° 0 mm 3 mps 772 mmHg 51%
    15:00 +5°C° 0 mm 3 mps 772 mmHg 56%
    16:00 +5°C° 0 mm 2 mps 772 mmHg 61%
    17:00 +4°C° 0 mm 2 mps 771 mmHg 66%
    18:00 +3°C° 0 mm 2 mps 772 mmHg 69%
    19:00 +3°C° 0 mm 2 mps 772 mmHg 72%
    20:00 +2°C° 0 mm 2 mps 772 mmHg 75%
    21:00 +2°C° 0 mm 2 mps 772 mmHg 76%
    22:00 +2°C° 0 mm 2 mps 772 mmHg 77%
    23:00 +1°C° 0 mm 2 mps 772 mmHg 78%

    15 December, Saturday

    Time Temperature Precipitation Wind Pressure Humidity
    00:00 +1°C° 0 mm 2 mps 772 mmHg 81%
    01:00 +1°C° 0 mm 2 mps 771 mmHg 83%
    02:00 +1°C° 0 mm 2 mps 771 mmHg 85%
    03:00 +1°C° 0 mm 2 mps 771 mmHg 87%
    04:00 +1°C° 0 mm 2 mps 770 mmHg 88%
    05:00 +1°C° 0 mm 2 mps 770 mmHg 90%
    06:00 +1°C° 0 mm 2 mps 770 mmHg 90%
    07:00 +1°C° 0 mm 2 mps 770 mmHg 89%
    08:00 +1°C° 0 mm 2 mps 770 mmHg 88%
    09:00 +3°C° 0 mm 2 mps 770 mmHg 81%
    10:00 +5°C° 0 mm 2 mps 770 mmHg 73%
    11:00 +7°C° 0 mm 3 mps 770 mmHg 66%
    12:00 +8°C° 0 mm 2 mps 769 mmHg 64%
    13:00 +9°C° 0 mm 2 mps 768 mmHg 61%
    14:00 +9°C° 0 mm 2 mps 768 mmHg 59%
    15:00 +9°C° 0 mm 2 mps 767 mmHg 63%
    16:00 +9°C° 0 mm 1 mps 767 mmHg 67%
    17:00 +8°C° 0 mm 1 mps 767 mmHg 71%
    18:00 +8°C° 0 mm 1 mps 767 mmHg 73%
    19:00 +7°C° 0 mm 1 mps 767 mmHg 75%
    20:00 +7°C° 0 mm 1 mps 768 mmHg 77%
    21:00 +6°C° 0 mm 1 mps 768 mmHg 79%
    22:00 +6°C° 0 mm 1 mps 767 mmHg 80%
    23:00 +6°C° 0 mm 1 mps 767 mmHg 81%

    16 December, Sunday

    Time Temperature Precipitation Wind Pressure Humidity
    00:00 +6°C° 0 mm 1 mps 767 mmHg 82%
    01:00 +6°C° 0 mm 1 mps 767 mmHg 82%
    02:00 +6°C° 0 mm 1 mps 766 mmHg 83%
    03:00 +5°C° 0 mm 1 mps 766 mmHg 83%
    04:00 +5°C° 0 mm 1 mps 766 mmHg 83%
    05:00 +3°C° 0 mm 2 mps 766 mmHg 83%
    06:00 +3°C° 0 mm 2 mps 766 mmHg 80%
    07:00 +3°C° 0 mm 2 mps 766 mmHg 77%
    08:00 +3°C° 0 mm 2 mps 766 mmHg 74%
    09:00 +4°C° 0 mm 2 mps 766 mmHg 64%
    10:00 +5°C° 0 mm 3 mps 766 mmHg 54%
    11:00 +8°C° 0 mm 3 mps 766 mmHg 44%
    12:00 +9°C° 0 mm 3 mps 766 mmHg 40%
    13:00 +10°C° 0 mm 3 mps 765 mmHg 36%
    14:00 +11°C° 0 mm 3 mps 764 mmHg 32%
    15:00 +10°C° 0 mm 3 mps 764 mmHg 34%
    16:00 +9°C° 0 mm 3 mps 764 mmHg 36%
    17:00 +8°C° 0 mm 2 mps 764 mmHg 39%
    18:00 +8°C° 0 mm 2 mps 764 mmHg 39%
    19:00 +7°C° 0 mm 2 mps 765 mmHg 40%
    20:00 +6°C° 0 mm 2 mps 765 mmHg 41%
    21:00 +6°C° 0 mm 2 mps 765 mmHg 42%
    22:00 +5°C° 0 mm 2 mps 765 mmHg 43%
    23:00 +5°C° 0 mm 2 mps 765 mmHg 44%
    Show more